Regional Weather Roundup
Issued by NWS

Home | Current Version | Previous Version | Text Only | Print | Product List | Glossary Off
Versions: 1 2 3 4 5 6 7 8 9 10 11 12 13 14 15 16 17 18 19 20 21 22 23 24 25 26 27 28 29 30 31 32 33 34 35 36 37 38 39 40 41 42 43 44 45 46 47 48 49 50

000
ASUS43 KMKX 270621
RWRWI

WISCONSIN REGIONAL WEATHER ROUNDUP
NATIONAL WEATHER SERVICE MILWAUKEE/SULLIVAN WI
100 AM CDT SAT AUG 27 2016

NOTE: "FAIR" INDICATES FEW OR NO CLOUDS BELOW 12,000 FEET WITH NO
SIGNIFICANT WEATHER AND/OR OBSTRUCTIONS TO VISIBILITY.

WIZ001-002-006>008-014>016-023>028-270700-
NORTHWEST WISCONSIN

CITY           SKY/WX    TMP DP  RH WIND       PRES   REMARKS
SUPERIOR ARPT  FAIR      54  54 100 CALM      30.12S
6HR MIN TEMP:  53; 6HR MAX TEMP:  69;

ASHLAND        FAIR      54  52  93 CALM      30.14F
6HR MIN TEMP:  53; 6HR MAX TEMP:  65;

HAYWARD        FAIR      53  52  96 CALM      30.15S
6HR MIN TEMP:  53; 6HR MAX TEMP:  68;

SIREN          FAIR      58  56  95 CALM      30.13S
6HR MIN TEMP:  57; 6HR MAX TEMP:  67;

CUMBERLAND     FAIR      59  55  88 CALM      30.13S
RICE LAKE      FAIR      58  56  93 CALM      30.15S
6HR MIN TEMP:  57; 6HR MAX TEMP:  65;

CHETEK         NOT AVBL
LADYSMITH      FAIR      57  55  93 CALM      30.16S
6HR MIN TEMP:  57; 6HR MAX TEMP:  66;

EAU CLAIRE     CLOUDY    61  59  93 CALM      30.11F
6HR MIN TEMP:  60; 6HR MAX TEMP:  69;

MENOMONIE      MOCLDY    61  58  91 CALM      30.11F
6HR MIN TEMP:  60; 6HR MAX TEMP:  68;

NEW RICHMOND   FAIR      60  57  89 CALM      30.12S
6HR MIN TEMP:  59; 6HR MAX TEMP:  66;

OSCEOLA        FAIR      60  60 100 CALM      30.14S
6HR MIN TEMP:  59; 6HR MAX TEMP:  68;

$$

WIZ003>005-009-010-017-018-270700-
NORTH CENTRAL WISCONSIN

CITY           SKY/WX    TMP DP  RH WIND       PRES   REMARKS
MANITOWISH WTR NOT AVBL
ARBOR VITAE    FAIR      57  54  89 CALM      30.17S
6HR MIN TEMP:  55; 6HR MAX TEMP:  62;

WOODRUFF       FAIR      57  54  89 CALM      30.17S
6HR MIN TEMP:  55; 6HR MAX TEMP:  62;

RHINELANDER    FAIR      56  56 100 CALM      30.17F
6HR MIN TEMP:  54; 6HR MAX TEMP:  66;

EAGLE RIVER    FAIR      52  52 100 CALM      30.17S
6HR MIN TEMP:  50; 6HR MAX TEMP:  61;

LAND O LAKES   FAIR      50  50 100 CALM      30.19S
6HR MIN TEMP:  49; 6HR MAX TEMP:  63;

PHILLIPS       FAIR      54  54 100 CALM      30.15S
6HR MIN TEMP:  53; 6HR MAX TEMP:  64;

TOMAHAWK       FAIR      52  51  96 CALM      30.17S
6HR MIN TEMP:  52; 6HR MAX TEMP:  64;

MEDFORD        MOCLDY    56  56 100 CALM      30.15S
6HR MIN TEMP:  54; 6HR MAX TEMP:  64;

MERRILL        FAIR      57  56  99 CALM      30.17S
6HR MIN TEMP:  57; 6HR MAX TEMP:  66;

$$

WIZ029-030-035-036-043>047-270700-
CENTRAL WISCONSIN

CITY           SKY/WX    TMP DP  RH WIND       PRES   REMARKS
WAUSAU         FAIR      60  57  89 E3        30.14F
6HR MIN TEMP:  60; 6HR MAX TEMP:  67;

MOSINEE        LGT RAIN  59  59 100 CALM      30.17R
MARSHFIELD     LGT RAIN  61  57  87 CALM      30.15S
6HR MIN TEMP:  61; 6HR MAX TEMP:  67; 6HR PCP: TRACE;

STEVENS POINT  LGT RAIN  59  58  95 CALM      30.17R
6HR MIN TEMP:  58; 6HR MAX TEMP:  66;

WAUPACA        LGT RAIN  64  63  96 CALM      30.16R
6HR MIN TEMP:  63; 6HR MAX TEMP:  70;

WAUTOMA        LGT RAIN  63  61  93 CALM      30.15S
6HR MIN TEMP:  62; 6HR MAX TEMP:  67;

WISC RAPIDS    LGT RAIN  61  60  97 CALM      30.17R
6HR MIN TEMP:  60; 6HR MAX TEMP:  67; 6HR PCP:  0.02;

CAMP DOUGLAS   RAIN      63  61  94 W5        30.15R FOG
6HR MIN TEMP:  62; 6HR MAX TEMP:  68; 6HR PCP:  0.02;

$$

WIZ011>013-019>022-031-037>040-048>050-270700-
NORTHEAST WISCONSIN

CITY           SKY/WX    TMP DP  RH WIND       PRES   REMARKS
ANTIGO         FAIR      57  55  94 CALM      30.18R
6HR MIN TEMP:  56; 6HR MAX TEMP:  64;

SHAWANO        CLOUDY    62  59  90 CALM      30.15F
6HR MIN TEMP:  62; 6HR MAX TEMP:  70;

OCONTO         NOT AVBL
STURGEON BAY   CLOUDY    63  59  87 SW3       30.16S
6HR MIN TEMP:  62; 6HR MAX TEMP:  69;

GREEN BAY      CLOUDY    62  62 100 CALM      30.15S
6HR MIN TEMP:  61; 6HR MAX TEMP:  68;

MANITOWOC      MOCLDY    62  59  90 CALM      30.16R
6HR MIN TEMP:  61; 6HR MAX TEMP:  66;

APPLETON       CLOUDY    64  52  63 CALM      30.15R
CLINTONVILLE   CLOUDY    61  59  94 CALM      30.16R
OSHKOSH        CLOUDY    65  59  81 S3        30.15R
6HR MIN TEMP:  63; 6HR MAX TEMP:  70;

$$

WIZ032>034-041-042-053>061-270700-
SOUTHWEST WISCONSIN

CITY           SKY/WX    TMP DP  RH WIND       PRES   REMARKS
LA CROSSE      LGT RAIN  65  63  93 S6        30.13S
6HR MIN TEMP:  65; 6HR MAX TEMP:  73; 6HR PCP:  0.04;

SPARTA         LGT RAIN  61  61  99 CALM      30.15S
6HR MIN TEMP:  61; 6HR MAX TEMP:  69; 6HR PCP:  0.06;

VIROQUA        CLOUDY    61  60  97 E8        30.14F
6HR MIN TEMP:  61; 6HR MAX TEMP:  67; 6HR PCP:  0.14;

BOSCOBEL       LGT RAIN  65  63  93 CALM      30.13R
6HR MIN TEMP:  65; 6HR MAX TEMP:  69; 6HR PCP:  0.03;

PRAIRIE DU CHI LGT RAIN  63  59  88 CALM      30.12F
6HR MIN TEMP:  63; 6HR MAX TEMP:  66; 6HR PCP:  0.09;

PLATTEVILLE    CLOUDY    64  64  99 N7        30.11F
6HR MIN TEMP:  64; 6HR MAX TEMP:  68; 6HR PCP:  0.15;

$$

WIZ056-057-062-063-064-067-068-270700-
SOUTH CENTRAL WISCONSIN

CITY           SKY/WX    TMP DP  RH WIND       PRES   REMARKS
REEDSBURG      NOT AVBL
BARABOO/DELLS  CLOUDY    63  61  93 CALM      30.14S
6HR MIN TEMP:  63; 6HR MAX TEMP:  66; 6HR PCP:  0.01;

LONE ROCK      CLOUDY    66  61  84 CALM      30.13S
6HR MIN TEMP:  65; 6HR MAX TEMP:  68; 6HR PCP:  0.01;

MINERAL POINT  CLOUDY    66  61  82 E7        30.12F
MADISON        CLOUDY    66  60  81 MISG      30.13R
6HR MIN TEMP:  65; 6HR MAX TEMP:  69; 6HR PCP: TRACE;

MIDDLETON      CLOUDY    66  61  84 E7        30.13F
6HR MIN TEMP:  64; 6HR MAX TEMP:  69;

WATERTOWN      CLOUDY    64  61  88 E3        30.13S
6HR MIN TEMP:  63; 6HR MAX TEMP:  70;

MONROE         CLOUDY    64  61  88 E7        30.12R
JANESVILLE     HVY RAIN  68  63  83 S5        30.12R
$$

WIZ051-052-058>065-066-070>072-270700-
SOUTHEAST WISCONSIN

CITY           SKY/WX    TMP DP  RH WIND       PRES   REMARKS
MILWAUKEE      MOCLDY    68  62  81 CALM      30.14R
6HR MIN TEMP:  65; 6HR MAX TEMP:  70;

WAUKESHA       MOCLDY    63  57  82 E5        30.15S
MILWAUKEE/TIMM MOCLDY    64  57  77 CALM      30.14S
RACINE         RAIN      68  61  78 E6        30.15R
6HR MIN TEMP:  65; 6HR MAX TEMP:  71; 6HR PCP:  0.01;

BURLINGTON     LGT RAIN  64  59  85 E6        30.12F
6HR MIN TEMP:  62; 6HR MAX TEMP:  69;

KENOSHA        CLOUDY    66  62  87 E9        30.12F
6HR MIN TEMP:  64; 6HR MAX TEMP:  70; 6HR PCP:  0.05;

FOND DU LAC    CLOUDY    64  60  87 CALM      30.15R
6HR MIN TEMP:  62; 6HR MAX TEMP:  70;

SHEBOYGAN      CLOUDY    63  59  87 CALM      30.15S
6HR MIN TEMP:  59; 6HR MAX TEMP:  70;

WEST BEND      CLOUDY    61  59  94 CALM      30.14F
JUNEAU         CLOUDY    64  58  82 CALM      30.15S
6HR MIN TEMP:  64; 6HR MAX TEMP:  67;

$$

LSZ147-162-270700-
LAKE SUPERIOR

STATION/POSITION TIME  TEMP    WIND        PRES    WAVE
                       AIR SEA DIR/SP/G            HT/PER
                 (UTC) (F)     (DEG/KT/KT) (MB)    (FT/S)
W MID LAKE BUOY  0550   66 67  170/ 10/ 10 1020.2F   1
DEVILS ISLAND    0600   64     180/  5/  6 1020.2F
PORT WING        0500   62     120/  3/  5 1020.3R
SAXON HARBOR     0540   58     200/  5/  7 1020.3F
$$

LMZ867-665-643>646-270700-
LAKE MICHIGAN

STATION/POSITION TIME  TEMP    WIND        PRES    WAVE
                       AIR SEA DIR/SP/G            HT/PER
                 (UTC) (F)     (DEG/KT/KT) (MB)    (FT/S)
CHAMBERS ISLAND  0500   63     230/  2/  2 1020.7S
S GREEN BAY BUOY 0530   68 72  300/  4/  6 1020.2F
N MID LAKE BUOY  0550   69 C1F1C2F2C3F3C4F4C5F5C6F6C7F7C8M1C9M2Ca!



USA.gov is the U.S. government's official web portal to all federal, state and local government web resources and services.